Tracking 29967 objects as of 6-Dec-2024
HD Live streaming from Space Station
objects crossing your sky now

SL-8 R/B

Track SL-8 R/B now!
10-day predictions


NORAD ID: 28421
Int'l Code: 2004-037C
Perigee: 1,477.6 km
Apogee: 1,512.8 km
Inclination: 82.5 °
Period: 115.7 minutes
Semi major axis: 7866 km
RCS: 5.1924 m2 (large)
Launch date: September 23, 2004
Source: Commonwealth of Independent States (former USSR) (CIS)
Launch site: PLESETSK MISSILE AND SPACE COMPLEX (PKMTR)

Note: This is a ROCKET BODY
Your satellite tracking list
Your tracking list is empty




NASA's NSSDC Master Catalog

Two Line Element Set (TLE):
1 28421U 04037C   24340.46409911 -.00000075  00000-0 -60433-3 0  9991
2 28421  82.4810 325.1280 0022352  93.4078  19.5242 12.44388935917443
Source of the keplerian elements: AFSPC